Weather History for St. Joseph, MO

Change the Weather History Date:

Monday, September 30, 2013

  Actual Average Record
Temperature  
Mean Temperature 61 °F 61 °F  
Max Temperature 80 °F 74 °F 93 °F (2002)
Min Temperature 41 °F 48 °F 29 °F (1984)
Degree Days  
Heating Degree Days 4 6  
Month to date heating degree days 36 76  
Since 1 July heating degree days 38 80  
Cooling Degree Days 0 2  
Month to date cooling degree days 189 122  
Year to date cooling degree days 1259 1199  
Growing Degree Days 10 (Base 50)    
Moisture  
Dew Point 47 °F    
Average Humidity 66    
Maximum Humidity 100    
Minimum Humidity 32    
Precipitation  
Precipitation 0.00 in 0.08 in 1.15 in (1945)
Month to date precipitation 3.55 3.42  
Year to date precipitation 23.22 29.72  
Sea Level Pressure  
Sea Level Pressure 29.89 in    
Wind  
Wind Speed 6 mph (South)    
Max Wind Speed 16 mph    
Max Gust Speed 41 mph    
Visibility 6 miles    
Events Fog    
T = Trace of Precipitation, MM = Missing Value Source: NWS Daily Summary

Daily Weather History Graph

Daily Weather History Graph

Search for Another Location

Airport:

Trip Planner

Search our weather history database for the weather conditions in past years. The results will help you decide how hot, cold, wet, or windy it might be!

Date:

Astronomy

Sep. 30, 2013 Rise Set
Actual Time 7:15 AM CDT 7:03 PM CDT
Civil Twilight 6:48 AM CDT 7:30 PM CDT
Nautical Twilight 6:16 AM CDT 8:01 PM CDT
Astronomical Twilight 5:45 AM CDT 8:32 PM CDT
Moon 2:53 AM CDT (9/30) 4:34 PM CDT (9/30)
Length of Visible Light 12h 41m
Length of Day
11h 48m
Waning Crescent, 19% of the Moon is Illuminated
Sep 30
Waning Crescent
Oct 4
New
Oct 11
First Quarter
Oct 18
Full
Oct 26
Last Quarter

Hourly Weather History & Observations

Time (CDT) Temp. Windchill Dew Point Humidity Pressure Visibility Wind Dir Wind Speed Gust Speed Precip Events Conditions
12:53 AM 53.1 °F - 48.9 °F 86% 29.94 in 10.0 mi SSW 5.8 mph - N/A   Clear
1:53 AM 50.0 °F - 46.9 °F 89% 29.95 in 10.0 mi WNW 3.5 mph - N/A   Clear
2:53 AM 46.9 °F - 45.0 °F 93% 29.92 in 10.0 mi Calm Calm - N/A   Clear
3:53 AM 45.0 °F - 43.0 °F 93% 29.92 in 10.0 mi Calm Calm - N/A   Clear
4:16 AM 44.6 °F - 42.8 °F 93% 29.92 in 10.0 mi Calm Calm - N/A   Partly Cloudy
4:25 AM 46.4 °F - 42.8 °F 87% 29.92 in 1.2 mi Calm Calm - N/A   Partly Cloudy
4:28 AM 46.4 °F - 44.6 °F 93% 29.91 in 0.5 mi Calm Calm - N/A Fog Fog
4:35 AM 46.4 °F - 44.6 °F 93% 29.91 in 1.0 mi Calm Calm - N/A   Mist
4:37 AM 46.4 °F - 44.6 °F 93% 29.91 in 3.0 mi Calm Calm - N/A   Partly Cloudy
4:53 AM 45.0 °F - 43.0 °F 93% 29.91 in 10.0 mi Calm Calm - N/A   Partly Cloudy
5:10 AM 42.8 °F - 41.0 °F 93% 29.91 in 1.8 mi Calm Calm - N/A   Clear
5:32 AM 44.6 °F - 42.8 °F 93% 29.91 in 3.0 mi Calm Calm - N/A   Clear
5:34 AM 44.6 °F - 42.8 °F 93% 29.91 in 1.5 mi Calm Calm - N/A   Clear
5:41 AM 42.8 °F - 41.0 °F 93% 29.91 in 0.5 mi Calm Calm - N/A Fog Fog
5:53 AM 44.1 °F - 42.1 °F 93% 29.91 in 0.5 mi Calm Calm - N/A Fog Fog
5:59 AM 42.8 °F 40.1 °F 41.0 °F 93% 29.91 in 1.2 mi SE 4.6 mph - N/A   Clear
6:04 AM 44.6 °F - 42.8 °F 93% 29.91 in 3.0 mi Calm Calm - N/A   Clear
6:23 AM 42.8 °F - 41.0 °F 93% 29.91 in 1.5 mi Calm Calm - N/A   Clear
6:26 AM 42.8 °F - 42.8 °F 100% 29.91 in 0.5 mi Calm Calm - N/A Fog Fog
6:44 AM 42.8 °F - 41.0 °F 93% 29.91 in 0.2 mi Calm Calm - N/A Fog Fog
6:53 AM 43.0 °F - 42.1 °F 97% 29.91 in 0.2 mi Calm Calm - N/A Fog Fog
7:08 AM 42.8 °F - 41.0 °F 93% 29.91 in 0.2 mi Calm Calm - N/A Fog Fog
7:18 AM 46.4 °F - 44.6 °F 93% 29.91 in 0.2 mi Calm Calm - N/A Fog Fog
7:35 AM 46.4 °F - 44.6 °F 93% 29.91 in 0.2 mi Calm Calm - N/A Fog Fog
7:53 AM 46.0 °F - 45.0 °F 96% 29.91 in 0.2 mi Calm Calm - N/A Fog Fog
8:06 AM 46.4 °F - 46.4 °F 100% 29.91 in 0.8 mi Calm Calm - N/A   Clear
8:13 AM 48.2 °F - 48.2 °F 100% 29.91 in 1.8 mi Calm Calm - N/A   Clear
8:19 AM 50.0 °F - 50.0 °F 100% 29.92 in 3.0 mi Calm Calm - N/A   Clear
8:53 AM 53.1 °F - 52.0 °F 96% 29.91 in 10.0 mi Calm Calm - N/A   Clear
9:53 AM 60.1 °F - 53.1 °F 78% 29.91 in 10.0 mi South 4.6 mph - N/A   Clear
10:53 AM 69.1 °F - 54.0 °F 58% 29.89 in 10.0 mi SSW 9.2 mph - N/A   Clear
11:53 AM 73.0 °F - 52.0 °F 48% 29.88 in 10.0 mi South 8.1 mph - N/A   Clear
12:53 PM 75.9 °F - 50.0 °F 40% 29.85 in 10.0 mi SSW 12.7 mph - N/A   Clear
1:53 PM 77.0 °F - 48.0 °F 36% 29.83 in 10.0 mi South 13.8 mph 19.6 mph N/A   Clear
2:53 PM 78.1 °F - 51.1 °F 39% 29.82 in 10.0 mi SSW 10.4 mph - N/A   Clear
3:53 PM 78.1 °F - 46.0 °F 32% 29.81 in 10.0 mi South 10.4 mph 17.3 mph N/A   Clear
4:53 PM 79.0 °F - 48.0 °F 34% 29.81 in 10.0 mi SSW 9.2 mph - N/A   Clear
5:53 PM 75.9 °F - 50.0 °F 40% 29.80 in 10.0 mi South 12.7 mph - N/A   Clear
6:53 PM 69.1 °F - 54.0 °F 58% 29.80 in 10.0 mi South 6.9 mph - N/A   Clear
7:53 PM 64.9 °F - 55.0 °F 70% 29.81 in 10.0 mi South 8.1 mph - N/A   Clear
8:53 PM 64.0 °F - 57.0 °F 78% 29.81 in 10.0 mi South 6.9 mph - N/A   Clear
9:53 PM 64.0 °F - 57.9 °F 80% 29.81 in 10.0 mi South 8.1 mph - N/A   Clear
10:53 PM 62.1 °F - 57.0 °F 84% 29.83 in 10.0 mi SSW 6.9 mph - N/A   Clear
11:53 PM 61.0 °F - 55.9 °F 83% 29.83 in 10.0 mi SSW 6.9 mph - N/A   Clear